[[{"header":{"parameterUnit":"m.s-1","parameterCategory":1,"la1":30.2991,"la2":30.254,"lo1":-89.0895,"lo2":-89.0444,"dy":0.0017,"dx":0.0017,"nx":28,"ny":28,"refTime":"2024-02-24T09:00:00:Z","depth":0,"parameterNumber":2,"parameterNumberName":"U-component_of_WINDS"},"data":[0,0,0,0,0,0,0,0,0,0,0,0,0,0,0,0,0,0,0,0,0,0,0,0,0,0,0,0,0,0,0,0,0,0,0,0,0,0,0,0,0,0,0,0,0,0,0,0,0,0,0,0,0,0,0,0,0,0,-0.6024,-0.6024,0,-0.603,-0.603,-0.603,-0.6009,-0.6008,-0.6007,-0.6007,-0.6014,-0.6015,-0.6016,0,0,0,0,0,0,0,0,0,0,0,0,0,-0.5993,-0.5994,-0.6024,-0.6024,-0.6024,-0.603,-0.603,-0.603,-0.6009,-0.6008,-0.6007,-0.6006,-0.6014,-0.6015,-0.6016,0,0,0,0,0,0,0,0,0,0,0,0,0,-0.6004,-0.5994,-0.6024,-0.6014,-0.6013,-0.603,-0.603,-0.603,-0.6009,-0.6008,-0.6007,-0.6006,-0.6014,-0.6015,-0.6016,-0.6043,0,0,-0.602,-0.602,0,0,0,0,0,0,0,0,-0.6003,-0.6005,-0.6015,-0.6015,-0.6014,-0.6018,-0.6022,-0.6035,-0.6009,-0.6011,-0.6007,-0.6006,-0.6016,-0.6017,-0.6021,-0.6044,-0.6044,-0.602,-0.6021,-0.6021,-0.6021,0,0,0,0,0,0,0,-0.6002,-0.6005,-0.6026,-0.6015,-0.6014,-0.6009,-0.601,-0.6024,-0.6019,-0.601,-0.6009,-0.601,-0.6016,-0.6019,-0.6021,-0.6044,-0.602,-0.6021,-0.6022,-0.6022,-0.609,-0.6091,0,0,0,0,0,0,-0.6003,-0.6004,-0.6026,-0.6027,-0.6006,-0.6011,-0.6011,-0.6017,-0.6019,-0.6018,-0.6011,-0.6009,-0.6018,-0.6019,-0.6021,-0.6053,-0.6021,-0.6022,-0.6023,-0.6089,-0.609,-0.6091,0,0,0,0,0,0,-0.6002,-0.6005,-0.6026,-0.6015,-0.6017,-0.6012,-0.6019,-0.6018,-0.6022,-0.6019,-0.6018,-0.6016,-0.6017,-0.6019,-0.6038,-0.6053,-0.6023,-0.6024,-0.6087,-0.6089,-0.6091,-0.6118,0,0,0,0,0,0,-0.6002,-0.6005,-0.6015,-0.6015,-0.6018,-0.6043,-0.602,-0.6019,-0.6024,-0.6022,-0.6023,-0.6023,-0.6016,-0.6036,-0.6039,-0.6054,-0.6025,-0.6086,-0.6088,-0.609,-0.6115,-0.612,-0.6124,0,0,0,0,0,-0.6001,-0.6023,-0.6016,-0.6019,-0.603,-0.6044,-0.6045,-0.6038,-0.6025,-0.6036,-0.6034,-0.6022,-0.6051,-0.6038,-0.6041,-0.6057,-0.6085,-0.6088,-0.609,-0.6113,-0.6119,-0.6124,0,0,0,0,0,0,-0.6025,-0.6023,-0.6015,-0.6038,-0.6041,-0.604,-0.6053,-0.6044,-0.6051,-0.6048,-0.6039,-0.6039,-0.606,-0.606,-0.6046,-0.6083,-0.6066,-0.6069,-0.6083,-0.6088,-0.6092,-0.6092,-0.6026,0,0,0,0,0,-0.6033,-0.6044,-0.6041,-0.6061,-0.6063,-0.6058,-0.6063,-0.6057,-0.606,-0.6062,-0.6061,-0.6065,-0.6074,-0.6081,-0.609,-0.6115,-0.6115,-0.6127,-0.6132,-0.6135,-0.6138,-0.6152,-0.6157,-0.6099,-0.6099,-0.6099,0,0,-0.605,-0.605,-0.6057,-0.6066,-0.6068,-0.608,-0.6059,-0.6072,-0.6081,-0.6064,-0.6082,-0.6081,-0.6085,-0.6107,-0.6117,-0.6108,-0.6154,-0.6138,-0.6141,-0.6142,-0.6155,-0.616,-0.6165,-0.6101,-0.61,-0.61,0,0,-0.6087,-0.6087,-0.6105,-0.6107,-0.611,-0.6106,-0.611,-0.611,-0.6109,-0.6127,-0.6114,-0.6124,-0.6141,-0.6144,-0.6147,-0.6185,-0.6175,-0.6188,-0.6211,-0.6224,-0.6229,-0.6233,-0.6246,-0.6251,-0.6191,-0.6191,-0.6191,0,-0.6107,-0.6124,-0.6115,-0.6129,-0.6133,-0.6118,-0.6135,-0.6138,-0.6143,-0.6147,-0.6137,-0.6157,-0.6159,-0.6182,-0.6191,-0.6194,-0.6199,-0.6188,-0.6229,-0.6233,-0.6236,-0.6249,-0.6254,-0.6192,-0.6192,-0.6192,-0.6192,0,-0.6149,-0.6161,-0.6175,-0.6181,-0.6187,-0.6202,-0.6196,-0.6203,-0.6196,-0.6193,-0.6211,-0.6212,-0.622,-0.6225,-0.6219,-0.6247,-0.6242,-0.623,-0.6212,-0.6243,-0.6256,-0.6261,-0.6195,-0.6194,-0.6194,-0.6193,0,0,-0.6203,-0.6203,-0.6208,-0.621,-0.6212,-0.6221,-0.6236,-0.6244,-0.6251,-0.6255,-0.6268,-0.6282,-0.6271,-0.6276,-0.6269,-0.6281,-0.6311,-0.6268,-0.6268,-0.6276,-0.6343,-0.6352,-0.6358,-0.6304,-0.6305,-0.6306,-0.6343,0,-0.6239,-0.6265,-0.6257,-0.6283,-0.6294,-0.6279,-0.6292,-0.6294,-0.6292,-0.6301,-0.6298,-0.6309,-0.6294,-0.6296,-0.6307,-0.6305,-0.6324,-0.6302,-0.6316,-0.6317,-0.6317,-0.6364,-0.6374,-0.6409,-0.6348,-0.6348,-0.6349,0,-0.6286,-0.6291,-0.6319,-0.6318,-0.6323,-0.6335,-0.6342,-0.635,-0.6353,-0.635,-0.6355,-0.6346,-0.6361,-0.6342,-0.6363,-0.6348,-0.6353,-0.6353,-0.6354,-0.6356,-0.6335,-0.6368,-0.642,-0.6426,-0.6356,-0.6356,-0.6355,0,-0.6322,-0.6337,-0.6355,-0.6358,-0.6358,-0.6367,-0.6367,-0.6369,-0.6374,-0.638,-0.6384,-0.6391,-0.6396,-0.6402,-0.6395,-0.6382,-0.6417,-0.6398,-0.6416,-0.6416,-0.6424,-0.6424,-0.6479,-0.6426,-0.6426,-0.6426,-0.6426,0,-0.6365,-0.6382,-0.6372,-0.6383,-0.6402,-0.6392,-0.6411,-0.641,-0.6412,-0.6423,-0.641,-0.642,-0.6411,-0.642,-0.6415,-0.6433,-0.6435,-0.6434,-0.6432,-0.6435,-0.6436,-0.6439,-0.6437,-0.6428,-0.6427,-0.6427,-0.6427,0,-0.641,-0.6403,-0.6422,-0.6421,-0.6421,-0.6435,-0.6434,-0.6444,-0.644,-0.6454,-0.6457,-0.6452,-0.6462,-0.6456,-0.6467,-0.6463,-0.6487,-0.6482,-0.6486,-0.6485,-0.6504,-0.6502,-0.6563,-0.6571,-0.6513,-0.6514,-0.6514,0,-0.6437,-0.645,-0.645,-0.6456,-0.6458,-0.6468,-0.6473,-0.6464,-0.647,-0.6474,-0.6484,-0.6494,-0.6501,-0.6519,-0.6516,-0.6524,-0.6519,-0.654,-0.6521,-0.6523,-0.6521,-0.652,-0.6522,-0.6545,-0.6545,-0.6546,-0.6546,0,-0.6488,-0.6484,-0.6492,-0.6499,-0.6506,-0.6511,-0.6515,-0.6521,-0.6512,-0.6519,-0.653,-0.6536,-0.6547,-0.6556,-0.6563,-0.6564,-0.6554,-0.6552,-0.6557,-0.6561,-0.6563,-0.6563,-0.6498,-0.6551,-0.6551,-0.655,-0.655,-0.655,-0.6525,-0.6536,-0.6538,-0.6547,-0.6549,-0.6553,-0.6563,-0.6561,-0.6569,-0.6577,-0.6571,-0.6584,-0.6586,-0.6594,-0.6596,-0.6606,-0.6598,-0.6605,-0.6606,-0.6608,-0.6611,-0.6561,-0.6607,-0.6607,-0.6607,-0.6607,-0.6607,0,-0.6575,-0.6576,-0.6584,-0.659,-0.6598,-0.6587,-0.6591,-0.6598,-0.661,-0.6612,-0.6619,-0.6632,-0.6641,-0.6639,-0.6647,-0.6655,-0.6651,-0.6658,-0.6658,-0.6658,-0.6618,-0.6613,-0.6661,-0.6661,-0.6661,-0.6661,-0.6661,-0.6661,-0.6603,-0.6621,-0.6617,-0.6636,-0.6636,-0.6648,-0.6651,-0.6655,-0.6657,-0.6671,-0.6679,-0.6677,-0.6678,-0.6686,-0.6694,-0.6693,-0.6697,-0.6706,-0.6703,-0.6666,-0.6661,-0.6656,-0.6651,-0.6707,-0.6707,-0.6743,-0.6743,-0.6743]},{"header":{"parameterUnit":"m.s-1","parameterCategory":1,"la1":30.2991,"la2":30.254,"lo1":-89.0895,"lo2":-89.0444,"dy":0.0017,"dx":0.0017,"nx":28,"ny":28,"refTime":"2024-02-24T09:00:00:Z","depth":0,"parameterNumber":3,"parameterNumberName":"V-component_of_WINDS"},"data":[0,0,0,0,0,0,0,0,0,0,0,0,0,0,0,0,0,0,0,0,0,0,0,0,0,0,0,0,0,0,0,0,0,0,0,0,0,0,0,0,0,0,0,0,0,0,0,0,0,0,0,0,0,0,0,0,0,0,-2.085,-2.0852,0,-2.096,-2.0962,-2.0963,-2.0977,-2.0976,-2.0975,-2.0974,-2.1086,-2.109,-2.1094,0,0,0,0,0,0,0,0,0,0,0,0,0,-2.0653,-2.0656,-2.085,-2.0852,-2.0853,-2.096,-2.0962,-2.0963,-2.0977,-2.0976,-2.0975,-2.0974,-2.1085,-2.109,-2.1095,0,0,0,0,0,0,0,0,0,0,0,0,0,-2.0748,-2.0658,-2.085,-2.0873,-2.0876,-2.096,-2.0962,-2.0964,-2.0978,-2.0976,-2.0974,-2.0973,-2.1084,-2.1089,-2.1095,-2.1163,0,0,-2.1113,-2.1116,0,0,0,0,0,0,0,0,-2.0743,-2.0756,-2.0868,-2.0872,-2.0875,-2.0953,-2.0933,-2.1031,-2.0978,-2.0939,-2.0974,-2.0972,-2.1043,-2.1053,-2.1077,-2.1169,-2.1173,-2.1114,-2.1117,-2.112,-2.1122,0,0,0,0,0,0,0,-2.0736,-2.0751,-2.0894,-2.087,-2.0874,-2.0878,-2.089,-2.0952,-2.0999,-2.0942,-2.0944,-2.0957,-2.1045,-2.1071,-2.1079,-2.1175,-2.1114,-2.1119,-2.1123,-2.1125,-2.133,-2.1332,0,0,0,0,0,0,-2.0725,-2.0745,-2.089,-2.0897,-2.0804,-2.0883,-2.0896,-2.093,-2.0998,-2.1007,-2.0958,-2.0957,-2.1061,-2.1072,-2.1083,-2.1169,-2.112,-2.1126,-2.1129,-2.1328,-2.133,-2.1332,0,0,0,0,0,0,-2.0721,-2.0738,-2.0886,-2.0822,-2.0841,-2.0888,-2.0926,-2.0933,-2.0959,-2.101,-2.1018,-2.0976,-2.1061,-2.1075,-2.1144,-2.1173,-2.1128,-2.1134,-2.1326,-2.1329,-2.1331,-2.1339,0,0,0,0,0,0,-2.0715,-2.0737,-2.0763,-2.0822,-2.0844,-2.0944,-2.0928,-2.0936,-2.0969,-2.0969,-2.1029,-2.1037,-2.1061,-2.1135,-2.115,-2.118,-2.1138,-2.1323,-2.1327,-2.133,-2.1336,-2.1342,-2.1346,0,0,0,0,0,-2.0708,-2.076,-2.0764,-2.0782,-2.0878,-2.0946,-2.0959,-2.0985,-2.0971,-2.0998,-2.1031,-2.1035,-2.1167,-2.1142,-2.1159,-2.1191,-2.1322,-2.1326,-2.133,-2.1334,-2.1341,-2.1346,0,0,0,0,0,0,-2.0703,-2.0768,-2.0773,-2.0846,-2.089,-2.0948,-2.0983,-2.099,-2.1039,-2.1037,-2.1067,-2.1081,-2.1148,-2.1177,-2.1147,-2.1261,-2.1243,-2.1251,-2.124,-2.1247,-2.1252,-2.1244,-2.1143,0,0,0,0,0,-2.071,-2.076,-2.0814,-2.0873,-2.0895,-2.0935,-2.0966,-2.0982,-2.1029,-2.1048,-2.1086,-2.1131,-2.1183,-2.1217,-2.1267,-2.134,-2.1354,-2.1371,-2.1376,-2.138,-2.1386,-2.1428,-2.1437,-2.1346,-2.1346,-2.1346,0,0,-2.0725,-2.0767,-2.0797,-2.0873,-2.0909,-2.0961,-2.0951,-2.1005,-2.1043,-2.1056,-2.1124,-2.1153,-2.1206,-2.1278,-2.1311,-2.1303,-2.1415,-2.1385,-2.1388,-2.1393,-2.1434,-2.1442,-2.145,-2.1349,-2.1349,-2.1348,0,0,-2.078,-2.0816,-2.087,-2.0907,-2.0962,-2.0988,-2.1001,-2.1058,-2.1078,-2.1147,-2.1158,-2.1204,-2.1292,-2.1329,-2.136,-2.143,-2.1436,-2.1445,-2.1471,-2.1512,-2.1519,-2.1525,-2.1551,-2.156,-2.1452,-2.1452,-2.1452,0,-2.0792,-2.0869,-2.0896,-2.0951,-2.0984,-2.0998,-2.1053,-2.1087,-2.1156,-2.1179,-2.117,-2.1282,-2.1318,-2.1399,-2.1416,-2.144,-2.1456,-2.1439,-2.1516,-2.1523,-2.1529,-2.1554,-2.1563,-2.1452,-2.1452,-2.1452,-2.1452,0,-2.0882,-2.0935,-2.0972,-2.1038,-2.1076,-2.113,-2.1166,-2.1201,-2.1214,-2.1242,-2.1311,-2.1356,-2.1416,-2.1436,-2.145,-2.152,-2.1514,-2.1509,-2.1492,-2.1538,-2.1562,-2.1571,-2.1454,-2.1453,-2.1453,-2.1453,0,0,-2.0935,-2.1017,-2.103,-2.106,-2.1123,-2.1165,-2.122,-2.1279,-2.1309,-2.1356,-2.1403,-2.1478,-2.1475,-2.151,-2.1528,-2.1563,-2.1617,-2.1555,-2.1557,-2.1566,-2.1698,-2.1701,-2.1711,-2.1621,-2.1623,-2.1624,-2.1694,0,-2.0997,-2.1095,-2.1122,-2.1206,-2.1256,-2.1271,-2.1319,-2.1363,-2.139,-2.1437,-2.1467,-2.152,-2.1512,-2.1533,-2.1569,-2.1603,-2.1644,-2.1598,-2.1666,-2.1668,-2.1652,-2.1724,-2.1727,-2.179,-2.1703,-2.1705,-2.1706,0,-2.1082,-2.1131,-2.122,-2.1277,-2.1299,-2.1342,-2.1399,-2.1444,-2.1494,-2.1511,-2.1551,-2.1566,-2.1624,-2.1603,-2.1685,-2.1653,-2.1682,-2.1703,-2.1706,-2.1714,-2.169,-2.1733,-2.181,-2.182,-2.1721,-2.1719,-2.1718,0,-2.1113,-2.1201,-2.1266,-2.1292,-2.136,-2.139,-2.142,-2.1468,-2.1503,-2.1552,-2.1575,-2.1631,-2.1661,-2.1705,-2.1734,-2.1716,-2.1813,-2.1795,-2.183,-2.1829,-2.185,-2.1848,-2.1933,-2.1868,-2.1868,-2.1868,-2.1868,0,-2.1179,-2.1233,-2.1281,-2.1321,-2.1382,-2.1413,-2.1472,-2.1503,-2.1546,-2.1592,-2.1609,-2.1652,-2.1688,-2.1737,-2.176,-2.1825,-2.1838,-2.1854,-2.186,-2.1853,-2.1851,-2.1873,-2.1869,-2.187,-2.187,-2.1869,-2.1869,0,-2.1223,-2.1258,-2.133,-2.1389,-2.1405,-2.1447,-2.1498,-2.1537,-2.1566,-2.1624,-2.164,-2.1684,-2.1742,-2.1776,-2.1849,-2.1865,-2.1936,-2.194,-2.1919,-2.1922,-2.1955,-2.1952,-2.2057,-2.2073,-2.1997,-2.1998,-2.1998,0,-2.1264,-2.1306,-2.1369,-2.1402,-2.1432,-2.1484,-2.1519,-2.1551,-2.1587,-2.1648,-2.168,-2.1739,-2.1788,-2.188,-2.1919,-2.1975,-2.198,-2.2013,-2.1989,-2.1981,-2.1981,-2.1979,-2.1983,-2.2017,-2.2018,-2.2019,-2.2019,0,-2.1332,-2.1347,-2.1397,-2.1454,-2.1496,-2.1542,-2.1587,-2.1613,-2.1652,-2.1692,-2.1752,-2.179,-2.1865,-2.1923,-2.1983,-2.2014,-2.2023,-2.2027,-2.2038,-2.2031,-2.2018,-2.2026,-2.1931,-2.2024,-2.2023,-2.2023,-2.2023,-2.2023,-2.1376,-2.1414,-2.1465,-2.1521,-2.1559,-2.1602,-2.1642,-2.1676,-2.1726,-2.179,-2.1805,-2.1868,-2.1918,-2.1999,-2.2032,-2.2082,-2.2076,-2.2092,-2.2096,-2.21,-2.2101,-2.201,-2.2092,-2.2092,-2.2092,-2.2092,-2.2092,0,-2.1445,-2.1479,-2.153,-2.1594,-2.1638,-2.1643,-2.1695,-2.1731,-2.1786,-2.1832,-2.188,-2.1949,-2.2007,-2.205,-2.2109,-2.2141,-2.2147,-2.2155,-2.2153,-2.216,-2.2102,-2.2087,-2.2149,-2.2149,-2.2149,-2.2149,-2.2149,-2.2149,-2.1486,-2.1552,-2.1573,-2.1658,-2.1692,-2.1754,-2.1783,-2.1822,-2.1859,-2.1936,-2.1984,-2.2012,-2.2057,-2.212,-2.2173,-2.2184,-2.2205,-2.2213,-2.2225,-2.217,-2.2164,-2.2158,-2.2144,-2.2217,-2.2217,-2.2279,-2.228,-2.228]}]]